User: anonymous   Login
Location: Caltech
(34.1382°N, 118.1253°W)
Time: 23:56:40
(UTC-07:00)
Language:

Cosmos 676 Rocket - Orbit

View from above orbital plane
View from above orbital plane
View from above satellite
View from above satellite

Ground track
Ground track

The orbit data is extracted from the following two-line orbital elements,

1 07434U 74071B   15085.84025029  .00000374  00000-0  13636-3 0  9992
2 07434 074.0455 267.4946 0020451 016.6165 343.5654 14.36433812119916
Epoch (UTC): 26 March 2015 20:09:57
Eccentricity: 0.0020451
inclination: 74.0455°
perigee height: 755 km
apogee height: 785 km
right ascension of ascending node: 267.4946°
argument of perigee: 16.6165°
revolutions per day: 14.36433812
mean anomaly at epoch: 343.5654°
orbit number at epoch: 11991

The dashed part of the orbit path shows where the satellite is in the earth's shadow,  

DLR